Retour au catalogue

GRUS-3G

ActifScienceSSO
NORAD 69878·PAYLOAD·🇨🇦 Canada

Lancé Jul 7, 2026 depuis Vandenberg Space Force Base

Loading…

Prochains Passages (prochaines 24 heures)

TLE

FraisSource: Space-Track

Époque: Sep 14, 2026, 03:54 UTC

1 69878U 26156K   26257.16258915  .00000618  00000-0  66747-4 0  9996
2 69878  97.7431 156.4413 0005293 285.2350  74.8283 14.91803305 10264

Suivez GRUS-3G en temps réel avec AllMySat

Download on the App Store